Simultaneous Nadir Overpasses (SNOs) Predictions

Prediction of SNOs between NOAA-19 and TERRA Satellite Orbit:

Table of predicted SNOs for the next 14.0 days since TLE Epoch: 10/5/2012
Index Date (NOAA-19) Time (NOAA-19) NOAA-19 Lat,Lon Date (TERRA) Time (TERRA) TERRA Lat,Lon Distance(km) Time Diff (sec)
1 10/07/2012 00:38:44 69.75, 168.83 10/07/2012 00:39:53 69.66, 170.15 52.03 69
2 10/07/2012 01:29:33 -69.07, -22.94 10/07/2012 01:29:31 -69.10, -22.95 3.19 2
3 10/07/2012 02:20:20 68.21, 145.47 10/07/2012 02:19:11 68.27, 143.66 74.90 69
4 10/09/2012 05:23:08 69.20, 98.50 10/09/2012 05:24:15 69.22, 98.51 2.56 67
5 10/09/2012 06:14:08 -69.07, -94.08 10/09/2012 06:13:46 -69.05, -94.08 1.68 22
6 10/11/2012 10:07:42 69.19, 27.37 10/11/2012 10:08:30 69.16, 27.37 3.30 48
7 10/11/2012 10:58:41 -69.03,-165.16 10/11/2012 10:57:59 -69.05,-165.14 2.62 42
8 10/13/2012 14:52:14 69.15, -43.70 10/13/2012 14:52:43 69.15, -43.71 0.20 29
9 10/13/2012 15:43:15 -69.01, 123.73 10/13/2012 15:42:14 -68.99, 123.71 2.80 61
10 10/15/2012 19:36:47 69.12,-114.80 10/15/2012 19:36:57 69.13,-114.80 0.23 10
11 10/15/2012 20:27:44 -68.74, 52.96 10/15/2012 20:26:31 -68.80, 52.42 22.77 73
12 10/17/2012 23:30:28 -69.55, 6.21 10/17/2012 23:31:40 -69.43, 6.90 29.70 72
13 10/18/2012 00:21:20 69.11, 174.08 10/18/2012 00:21:11 69.09, 174.10 2.47 9




NCC Satellite Simultaneous Nadir Overpasses (SNOs) Prediction Service
